Weather History for Truth Or Consequences, NM

Change the Weather History Date:

Thursday, February 28, 2013

  Actual Average Record
Temperature  
Mean Temperature 39 °F -  
Max Temperature 54 °F - 82 °F (2011)
Min Temperature 24 °F - 23 °F (1998)
Degree Days  
Heating Degree Days 26    
Month to date heating degree days 600  
Since 1 July heating degree days 2543  
Cooling Degree Days 0    
Month to date cooling degree days 0  
Year to date cooling degree days 0  
Moisture  
Dew Point 1 °F    
Average Humidity 22    
Maximum Humidity 33    
Minimum Humidity 11    
Precipitation  
Precipitation 0.00 in - 0.11 in (2001)
Month to date precipitation 0.01  
Year to date precipitation 0.08  
Sea Level Pressure  
Sea Level Pressure 30.22 in    
Wind  
Wind Speed 6 mph (NNW)    
Max Wind Speed 22 mph    
Max Gust Speed 35 mph    
Visibility 10 miles    
Events      
T = Trace of Precipitation, MM = Missing Value Source: NWS Daily Summary

Daily Weather History Graph

Daily Weather History Graph

Search for Another Location

Airport:

Trip Planner

Search our weather history database for the weather conditions in past years. The results will help you decide how hot, cold, wet, or windy it might be!

Date:

Astronomy

Feb. 28, 2013 Rise Set
Actual Time 6:38 AM MST 6:05 PM MST
Civil Twilight 6:13 AM MST 6:30 PM MST
Nautical Twilight 5:44 AM MST 6:59 PM MST
Astronomical Twilight 5:15 AM MST 7:27 PM MST
Moon 9:21 PM MST (2/28) 8:01 AM MST (2/28)
Length of Visible Light 12h 17m
Length of Day
11h 27m
Waning Gibbous, 90% of the Moon is Illuminated
Feb 28
Waning Gibbous
Mar 4
Last Quarter
Mar 11
New
Mar 19
First Quarter
Mar 27
Full

Hourly Weather History & Observations

Time (MST) Temp. Windchill Dew Point Humidity Pressure Visibility Wind Dir Wind Speed Gust Speed Precip Events Conditions
12:53 AM 30.0 °F 22.4 °F -0.9 °F 27% 30.20 in 10.0 mi WNW 8.1 mph - N/A   Clear
1:53 AM 30.9 °F 23.5 °F 1.0 °F 28% 30.18 in 10.0 mi NW 8.1 mph - N/A   Clear
2:53 AM 30.0 °F 25.2 °F 1.0 °F 29% 30.17 in 10.0 mi North 4.6 mph - N/A   Clear
3:53 AM 28.0 °F 22.8 °F -0.0 °F 30% 30.19 in 10.0 mi NNW 4.6 mph - N/A   Clear
4:53 AM 27.0 °F 19.5 °F -0.0 °F 31% 30.19 in 10.0 mi North 6.9 mph - N/A   Clear
5:53 AM 28.0 °F 20.8 °F 1.0 °F 31% 30.22 in 10.0 mi NNW 6.9 mph - N/A   Clear
6:53 AM 26.1 °F 17.6 °F 1.0 °F 34% 30.26 in 10.0 mi NW 8.1 mph - N/A   Clear
7:53 AM 35.1 °F 31.0 °F 3.0 °F 26% 30.28 in 10.0 mi North 4.6 mph - N/A   Clear
8:53 AM 37.9 °F 33.5 °F 3.0 °F 23% 30.30 in 10.0 mi ENE 5.8 mph - N/A   Clear
9:53 AM 41.0 °F 35.8 °F 3.0 °F 21% 30.29 in 10.0 mi NE 8.1 mph - N/A   Clear
10:53 AM 44.1 °F 42.5 °F 1.9 °F 17% 30.30 in 10.0 mi ENE 3.5 mph - N/A   Clear
11:53 AM 46.9 °F - 1.9 °F 16% 30.28 in 10.0 mi Variable 3.5 mph - N/A   Clear
12:53 PM 48.9 °F - 1.0 °F 14% 30.23 in 10.0 mi Variable 6.9 mph - N/A   Clear
1:53 PM 51.1 °F - 1.0 °F 13% 30.20 in 10.0 mi East 9.2 mph 17.3 mph N/A   Clear
2:53 PM 52.0 °F - 1.0 °F 12% 30.19 in 10.0 mi SE 5.8 mph - N/A   Clear
3:53 PM 52.0 °F - -0.0 °F 12% 30.18 in 10.0 mi Calm Calm - N/A   Clear
4:53 PM 53.1 °F - -0.9 °F 11% 30.18 in 10.0 mi SE 8.1 mph - N/A   Clear
5:53 PM 51.1 °F - -0.9 °F 12% 30.19 in 10.0 mi Calm Calm - N/A   Clear
6:53 PM 46.9 °F - -2.0 °F 13% 30.22 in 10.0 mi WSW 3.5 mph - N/A   Clear
7:53 PM 43.0 °F 39.5 °F -2.0 °F 15% 30.22 in 10.0 mi West 5.8 mph - N/A   Clear
8:53 PM 44.1 °F 40.8 °F -2.0 °F 15% 30.22 in 10.0 mi NW 5.8 mph - N/A   Clear
9:53 PM 45.0 °F 41.2 °F 3.9 °F 18% 30.22 in 10.0 mi NNW 6.9 mph - N/A   Clear
10:53 PM 44.1 °F 39.5 °F 3.9 °F 19% 30.22 in 10.0 mi NW 8.1 mph - N/A   Clear
11:53 PM 45.0 °F 36.6 °F -0.0 °F 15% 30.21 in 10.0 mi WNW 21.9 mph 34.5 mph N/A   Clear